Flag for Belgium Weather past 2 weeks in Charleroi, Belgium

Now
52 °F

Drizzle. Partly sunny.


Feels Like: 46 °F
Forecast: 43 / 54 °F
Wind: 21 mph from Southwest

Location: Charleroi / Gosselies

Current Time: Dec 18, 2014 at 3:45:53 PM

Latest Report: Dec 18, 2014 at 2:50 PM


Visibility: 4 mi

Pressure: 29.95 "Hg

Humidity: 94%

Dew point: 50 °F

Location of CharleroiLocation

Historic Weather in Charleroi — Graph

°F

Charleroi temperature yesterday

Maximum temperature yesterday: 50 °F (at 3:20 PM)
Minimum temperature yesterday: 36 °F (at 12:20 AM)
Average temperature yesterday: 44 °F

Past Weeks' High & Low Weather Summary

 TemperatureHumidityPressure
High52 °F (Dec 18, 5:50 AM)100% (Dec 3, 3:20 PM)30.39 "Hg (Dec 3, 3:20 PM)
Low28 °F (Dec 3, 5:50 PM)71% (Dec 10, 2:20 PM)29.45 "Hg (Dec 12, 2:20 PM)
Average39 °F92%29.99 "Hg
* Reported Dec 3 2:20 PM — Dec 18 2:50 PM, Charleroi, Weather by CustomWeather, © 2014

Note: Actual official high and low records may vary slightly from our data, if they occured in-between our weather recording intervals... More about our weather records

Advertising

Charleroi weather history for previous 24 hours

 ConditionsComfort  
Time TempWeatherWind HumidityBarometerVisibility
2:50 PM
Dec 18
52 °FDrizzle. Partly sunny.21 mph94%29.95 "Hg4 mi
2:20 PM52 °FDrizzle. Partly sunny.23 mph100%29.95 "Hg2 mi
1:50 PM52 °FDrizzle. Partly sunny.22 mph100%29.95 "Hg2 mi
1:20 PM52 °FDrizzle. Partly sunny.20 mph100%29.92 "Hg2 mi
12:50 PM52 °FDrizzle. Partly sunny.18 mph100%29.92 "Hg2 mi
12:20 PM52 °FDrizzle. Partly sunny.15 mph100%29.95 "Hg2 mi
11:50 AM52 °FDrizzle. Partly sunny.16 mph94%29.92 "Hg2 mi
11:20 AM52 °FDrizzle. Partly sunny.16 mph94%29.92 "Hg2 mi
10:50 AM52 °FDrizzle. Partly sunny.15 mph94%29.92 "Hg2 mi
10:20 AM52 °FDrizzle. Partly sunny.16 mph94%29.92 "Hg2 mi
9:50 AM52 °FDrizzle. Partly sunny.15 mph94%29.92 "Hg2 mi
9:20 AM52 °FDrizzle. Partly sunny.16 mph94%29.89 "Hg1 mi
8:50 AM52 °FDrizzle. Partly sunny.16 mph94%29.89 "Hg1 mi
8:20 AM52 °FPassing clouds.16 mph94%29.89 "Hg2 mi
7:50 AM52 °FPassing clouds.15 mph94%29.89 "Hg2 mi
7:20 AM52 °FPassing clouds.14 mph94%29.89 "Hg2 mi
6:50 AM52 °FLight rain. Passing clouds.14 mph94%29.89 "Hg2 mi
6:20 AM52 °FLight rain. Passing clouds.14 mph94%29.86 "Hg2 mi
5:50 AM52 °FLight rain. Passing clouds.16 mph94%29.86 "Hg2 mi
5:20 AM50 °FLight rain. Passing clouds.14 mph100%29.86 "Hg2 mi
4:20 AM50 °FFog.16 mph100%29.86 "Hg2 mi
3:50 AM50 °FLight rain. Fog.15 mph100%29.86 "Hg2 mi
3:20 AM50 °FLight rain. Fog.14 mph100%29.86 "Hg2 mi
2:50 AM50 °FLight rain. Fog.13 mph100%29.86 "Hg2 mi
2:20 AM50 °FFog.12 mph94%29.86 "Hg2 mi
1:50 AM50 °FFog.13 mph94%29.86 "Hg1 mi
1:20 AM50 °FFog.12 mph94%29.86 "Hg1 mi
12:50 AM50 °FFog.10 mph94%29.86 "Hg1 mi
12:20 AM50 °FFog.10 mph94%29.86 "Hg3 mi
11:50 PM
Dec 17
50 °FFog.12 mph94%29.86 "Hg3 mi
11:20 PM50 °FFog.10 mph94%29.86 "Hg3 mi
10:50 PM50 °FFog.10 mph94%29.86 "Hg3 mi
10:20 PM50 °FFog.12 mph94%29.86 "Hg2 mi
9:50 PM50 °FFog.14 mph94%29.86 "Hg2 mi
9:20 PM50 °FPassing clouds.10 mph94%29.86 "Hg4 mi
8:50 PM50 °FPassing clouds.9 mph94%29.83 "Hg4 mi
8:20 PM50 °FPassing clouds.10 mph94%29.83 "Hg4 mi
7:50 PM50 °FFog.10 mph94%29.83 "Hg3 mi
7:20 PM50 °FFog.7 mph94%29.80 "Hg3 mi
6:50 PM50 °FFog.8 mph94%29.80 "Hg3 mi
6:20 PM50 °FFog.8 mph94%29.77 "Hg3 mi
5:50 PM50 °FPassing clouds.9 mph94%29.77 "Hg3 mi
5:20 PM50 °FPassing clouds.8 mph94%29.77 "Hg2 mi
4:50 PM50 °FPassing clouds.7 mph94%29.74 "Hg2 mi
4:20 PM50 °FDrizzle. Partly sunny.8 mph94%29.74 "Hg2 mi
3:50 PM50 °FDrizzle. Partly sunny.8 mph94%29.74 "Hg3 mi
3:20 PM50 °FDrizzle. Partly sunny.8 mph94%29.71 "Hg2 mi
Weather by CustomWeather, © 2014

See weather overviewHow to use our weather pages